TimeCDT,TemperatureF,Dew PointF,Humidity,Sea Level PressureIn,VisibilityMPH,Wind Direction,Wind SpeedMPH,Gust SpeedMPH,PrecipitationIn,Events,Conditions,WindDirDegrees,DateUTC
12:53 AM,66.9,64.9,93,30.07,9.0,Calm,Calm,-,N/A,,Clear,0,2013-08-28 05:53:00
1:53 AM,66.0,64.0,93,30.05,7.0,Calm,Calm,-,N/A,,Clear,0,2013-08-28 06:53:00
2:53 AM,64.9,63.0,93,30.04,7.0,Calm,Calm,-,N/A,,Clear,0,2013-08-28 07:53:00
3:53 AM,64.0,62.1,93,30.04,7.0,Calm,Calm,-,N/A,,Clear,0,2013-08-28 08:53:00
4:53 AM,63.0,61.0,93,30.04,7.0,Calm,Calm,-,N/A,,Clear,0,2013-08-28 09:53:00
5:53 AM,63.0,61.0,93,30.06,7.0,Calm,Calm,-,N/A,,Clear,0,2013-08-28 10:53:00
6:53 AM,63.0,61.0,93,30.09,5.0,Calm,Calm,-,N/A,,Clear,0,2013-08-28 11:53:00
7:53 AM,68.0,64.0,87,30.11,8.0,Calm,Calm,-,N/A,,Clear,0,2013-08-28 12:53:00
8:53 AM,73.9,66.0,76,30.12,10.0,Calm,Calm,-,N/A,,Clear,0,2013-08-28 13:53:00
9:53 AM,80.1,66.0,62,30.12,10.0,NNE,3.5,-,N/A,,Clear,30,2013-08-28 14:53:00
10:53 AM,82.9,64.9,54,30.11,10.0,Variable,5.8,-,N/A,,Partly Cloudy,0,2013-08-28 15:53:00
11:53 AM,82.9,63.0,51,30.10,10.0,West,3.5,-,N/A,,Scattered Clouds,260,2013-08-28 16:53:00
12:53 PM,84.9,64.0,49,30.09,10.0,SE,5.8,-,N/A,,Partly Cloudy,140,2013-08-28 17:53:00
1:53 PM,84.9,61.0,44,30.07,10.0,Variable,3.5,-,N/A,,Scattered Clouds,0,2013-08-28 18:53:00
2:53 PM,87.1,62.1,43,30.06,10.0,East,8.1,-,N/A,,Scattered Clouds,90,2013-08-28 19:53:00
3:53 PM,88.0,62.1,42,30.04,10.0,Calm,Calm,-,N/A,,Partly Cloudy,0,2013-08-28 20:53:00
4:53 PM,87.1,62.1,43,30.03,10.0,Calm,Calm,-,N/A,,Partly Cloudy,0,2013-08-28 21:53:00
5:53 PM,87.1,62.1,43,30.03,10.0,NNW,4.6,-,N/A,,Partly Cloudy,340,2013-08-28 22:53:00
6:53 PM,81.0,69.1,67,30.03,10.0,Calm,Calm,-,N/A,,Clear,0,2013-08-28 23:53:00
7:53 PM,75.9,68.0,76,30.03,10.0,Calm,Calm,-,N/A,,Clear,0,2013-08-29 00:53:00
8:53 PM,73.0,69.1,87,30.04,10.0,Calm,Calm,-,N/A,,Clear,0,2013-08-29 01:53:00
9:53 PM,73.0,69.1,87,30.05,10.0,Calm,Calm,-,N/A,,Clear,0,2013-08-29 02:53:00
10:53 PM,71.1,68.0,90,30.05,9.0,Calm,Calm,-,N/A,,Clear,0,2013-08-29 03:53:00
11:53 PM,71.1,66.9,87,30.05,10.0,Calm,Calm,-,N/A,,Scattered Clouds,0,2013-08-29 04:53:00